Retour au catalogue

COSMOS 886 DEB

ActifLEO
NORAD 9723·DEBRIS·🇷🇺 Russia

Lancé Dec 27, 1976 depuis Baikonur Cosmodrome

Loading…

Prochains Passages (prochaines 24 heures)

TLE

FraisSource: Space-Track

Époque: Sep 14, 2026, 09:48 UTC

1 09723U 76126U   26257.40859884  .00002328  00000-0  21823-2 0  9994
2 09723  65.7549  36.0651 0693829 245.9276 106.7689 13.07349218310539

Suivez COSMOS 886 DEB en temps réel avec AllMySat

Download on the App Store